Weather reports worldwide

Advertisment
Plymouth, United Kingdom (3827): temperature & dewpoint: 23.04.2017 06:00:00 - 29.04.2017 06:00:00 (BST)Plymouth, United Kingdom (3827): wind speed & gusts: 23.04.2017 06:00:00 - 29.04.2017 06:00:00 (BST)Plymouth, United Kingdom (3827): wind direction: 23.04.2017 06:00:00 - 29.04.2017 06:00:00 (BST)Plymouth, United Kingdom (3827): reduced air pressure: 23.04.2017 06:00:00 - 29.04.2017 06:00:00 (BST)Plymouth, United Kingdom (3827): visibility: 23.04.2017 06:00:00 - 29.04.2017 06:00:00 (BST)Plymouth, United Kingdom (3827): precipitation: 23.04.2017 06:00:00 - 29.04.2017 06:00:00 (BST)
Date & Time tt [°C] td [°C] ff [km/h] ff [kn] fx [km/h] fx [kn] dd ppp [hPa] vv [km] rr [mm]
29.04.2017 06:00:00 9,2 6,5 21 11 - - SSW 1015,1 30 0,0
29.04.2017 05:00:00 9,1 6,2 18 10 - - SSW 1015,3 35 0,0
29.04.2017 04:00:00 8,1 5,7 4 2 - - E 1015,8 30 0,0
29.04.2017 03:00:00 7,9 4,8 8 4 - - SE 1016,3 35 0,0
29.04.2017 02:00:00 8,1 4,2 4 2 - - SE 1016,6 35 0,0
29.04.2017 01:00:00 8,4 3,5 2 1 - - S 1017,2 30 0,0
29.04.2017 00:00:00 8,8 3,2 2 1 - - ESE 1017,6 40 0,0
28.04.2017 23:00:00 9,1 3,4 8 4 - - E 1018,1 35 0,0
28.04.2017 22:00:00 9,3 3,3 8 4 - - NW 1018,2 23 0,0
28.04.2017 21:00:00 8,9 4,6 4 2 - - SW 1018,0 35 0,0
28.04.2017 20:00:00 9,6 6,2 8 4 - - WSW 1017,9 20 0,0
28.04.2017 19:00:00 9,8 6,8 13 7 - - WSW 1017,9 21 0,0
28.04.2017 18:00:00 10,0 6,7 11 6 - - WSW 1018,1 23 0,0
28.04.2017 17:00:00 10,8 6,2 13 7 - - SW 1018,3 25 0,0
28.04.2017 16:00:00 12,1 6,8 11 6 - - SSW 1018,5 19 0,0
28.04.2017 15:00:00 11,5 6,7 9 5 - - WSW 1018,8 19 0,0
28.04.2017 14:00:00 11,3 7,2 9 5 - - SW 1018,9 17 0,0
28.04.2017 13:00:00 9,8 7,0 15 8 - - SW 1019,0 26 0,0
28.04.2017 12:00:00 10,5 4,5 16 9 - - NNW 1019,2 25 0,0
28.04.2017 11:00:00 10,9 5,8 8 4 - - NNW 1019,3 22 0,0
28.04.2017 10:00:00 9,7 6,2 11 6 - - NNW 1019,5 21 0,0
28.04.2017 09:00:00 9,0 6,1 8 4 - - N 1019,5 30 0,0
28.04.2017 08:00:00 8,2 6,2 11 6 - - NNW 1019,6 17 0,0
28.04.2017 07:00:00 8,1 6,3 8 4 - - NW 1019,3 19 0,0
28.04.2017 06:00:00 7,9 6,5 5 3 - - NNW 1019,3 29 0,0
28.04.2017 05:00:00 8,0 6,6 8 4 - - N 1019,4 27 0,0
28.04.2017 04:00:00 8,1 7,1 8 4 - - NNW 1019,6 21 0,0
28.04.2017 03:00:00 7,7 7,1 5 3 - - WNW 1019,8 16 0,0
28.04.2017 02:00:00 7,4 6,9 5 3 - - WSW 1020,0 14 0,0
28.04.2017 01:00:00 7,1 6,2 4 2 - - WSW 1020,3 28 0,0
28.04.2017 00:00:00 7,4 6,1 9 5 - - WNW 1020,6 30 1,2
27.04.2017 23:00:00 8,0 6,1 5 3 - - WSW 1021,0 7 0,0
27.04.2017 22:00:00 8,5 5,0 11 6 - - WNW 1021,3 30 0,0
27.04.2017 21:00:00 8,7 4,1 18 10 - - NW 1021,2 30 0,0
27.04.2017 20:00:00 9,4 3,2 22 12 - - NNW 1020,8 40 0,0
27.04.2017 19:00:00 11,8 5,2 9 5 - - WNW 1020,8 29 0,0
27.04.2017 18:00:00 9,4 4,2 24 13 - - NNW 1021,1 20 0,0
27.04.2017 17:00:00 10,4 2,9 21 11 - - NW 1021,0 40 0,0
27.04.2017 16:00:00 10,4 2,6 18 10 - - NW 1021,4 30 0,0
27.04.2017 15:00:00 11,0 2,0 16 9 - - NNW 1021,5 40 0,0
27.04.2017 14:00:00 11,4 0,7 18 10 - - NNW 1021,5 21 0,0
27.04.2017 13:00:00 10,8 0,0 16 9 - - NW 1021,8 30 0,0
27.04.2017 12:00:00 10,9 -0,8 18 10 - - NNW 1022,1 35 0,0
27.04.2017 11:00:00 10,3 -2,4 15 8 - - NNW 1022,4 23 0,0
27.04.2017 10:00:00 9,6 0,0 11 6 - - N 1022,5 15 0,0
27.04.2017 09:00:00 6,8 1,4 9 5 - - NNW 1022,8 18 0,0
27.04.2017 08:00:00 3,6 0,5 8 4 - - NNW 1022,7 24 0,0
27.04.2017 07:00:00 0,2 -0,5 2 1 - - N 1022,6 14 0,0
27.04.2017 06:00:00 0,2 -1,1 2 1 - - N 1022,4 16 0,0
27.04.2017 05:00:00 0,4 -0,9 2 1 - - ENE 1022,3 24 0,0
27.04.2017 04:00:00 0,8 -1,4 4 2 - - N 1022,2 20 0,0
27.04.2017 03:00:00 1,6 -0,5 9 5 - - NW 1022,2 24 0,0
27.04.2017 02:00:00 1,8 -0,7 5 3 - - NNW 1022,4 22 0,0
27.04.2017 01:00:00 2,7 -0,9 5 3 - - NNE 1022,4 18 0,0
27.04.2017 00:00:00 3,0 -1,3 5 3 - - N 1022,3 17 0,0
26.04.2017 23:00:00 4,3 -1,6 5 3 - - NE 1022,1 30 0,0
26.04.2017 22:00:00 5,6 -1,7 9 5 - - N 1021,9 22 0,0
26.04.2017 21:00:00 6,5 -1,2 9 5 - - N 1021,5 40 0,0
26.04.2017 20:00:00 8,5 1,0 5 3 - - S 1020,9 30 0,0
26.04.2017 19:00:00 7,8 1,1 13 7 - - SE 1020,6 45 0,0
26.04.2017 18:00:00 8,4 0,9 16 9 - - S 1020,4 30 0,0
26.04.2017 17:00:00 9,6 1,0 16 9 - - S 1020,2 35 0,0
26.04.2017 16:00:00 9,3 1,2 9 5 - - S 1020,2 40 0,0
26.04.2017 15:00:00 10,1 -3,4 11 6 - - NNE 1020,0 35 0,0
26.04.2017 14:00:00 10,9 -2,7 16 9 - - N 1020,1 25 0,0
26.04.2017 13:00:00 10,2 -1,3 15 8 - - N 1020,1 26 0,0
26.04.2017 12:00:00 8,6 -1,1 22 12 - - N 1020,4 25 0,0
26.04.2017 11:00:00 8,0 -0,3 21 11 - - N 1020,4 40 0,0
26.04.2017 10:00:00 8,1 -0,1 22 12 - - NE 1020,4 50 0,0
26.04.2017 09:00:00 6,6 0,3 16 9 - - NNE 1020,5 27 0,0
26.04.2017 08:00:00 4,9 0,8 9 5 - - NNE 1020,2 17 0,0
26.04.2017 07:00:00 2,3 1,0 11 6 - - NNE 1019,8 29 0,0
26.04.2017 06:00:00 0,9 -0,2 5 3 - - NNE 1019,3 29 0,0
26.04.2017 05:00:00 1,3 -0,4 5 3 - - N 1018,9 35 0,0
26.04.2017 04:00:00 2,0 -0,1 9 5 - - N 1018,6 30 0,0
26.04.2017 03:00:00 2,6 0,4 11 6 - - NNW 1018,5 27 0,0
26.04.2017 02:00:00 3,0 0,5 5 3 - - NE 1018,6 26 0,0
26.04.2017 01:00:00 3,1 0,5 9 5 - - N 1018,6 30 0,0
26.04.2017 00:00:00 3,5 0,5 9 5 - - NNE 1018,2 24 0,0
25.04.2017 23:00:00 4,3 0,5 11 6 - - N 1018,0 26 0,0
25.04.2017 22:00:00 5,2 0,4 16 9 - - N 1017,6 22 0,0
25.04.2017 21:00:00 6,0 -0,1 18 10 - - N 1017,2 24 0,0
25.04.2017 20:00:00 7,5 -0,4 21 11 55 30 N 1016,7 28 0,0
25.04.2017 19:00:00 5,7 0,3 28 15 57 31 NNE 1017,2 21 0,0
25.04.2017 18:00:00 7,2 0,0 42 23 65 35 NNE 1016,6 30 0,0
25.04.2017 17:00:00 11,3 -1,8 26 14 46 25 NNW 1015,9 30 0,0
25.04.2017 16:00:00 11,8 -2,8 24 13 - - NNW 1016,1 22 0,0
25.04.2017 15:00:00 11,9 -0,8 21 11 46 25 N 1016,3 30 0,0
25.04.2017 14:00:00 11,1 -1,2 26 14 46 25 N 1016,3 26 0,0
25.04.2017 13:00:00 10,4 -2,1 28 15 - - N 1016,3 28 0,0
25.04.2017 12:00:00 9,4 -2,9 29 16 46 25 N 1016,4 29 0,0
25.04.2017 11:00:00 8,5 0,1 22 12 48 26 NNW 1016,4 27 0,0
25.04.2017 10:00:00 8,3 0,6 24 13 - - N 1016,4 20 0,0
25.04.2017 09:00:00 6,8 1,2 13 7 - - N 1016,5 30 0,0
25.04.2017 08:00:00 5,8 0,9 8 4 - - NNW 1016,6 17 0,0
25.04.2017 07:00:00 2,7 -1,3 4 2 - - NW 1016,6 20 0,0
25.04.2017 06:00:00 2,8 -1,8 9 5 - - N 1016,6 29 0,0
25.04.2017 05:00:00 3,1 -2,4 11 6 - - NNW 1016,7 29 0,0
25.04.2017 04:00:00 4,1 -3,0 13 7 - - N 1017,1 29 0,0
25.04.2017 03:00:00 4,9 -2,5 24 13 - - N 1016,6 30 0,0
25.04.2017 02:00:00 5,3 -1,5 18 10 - - N 1016,7 24 0,0
25.04.2017 01:00:00 6,2 -1,6 28 15 52 28 N 1016,5 22 0,0
25.04.2017 00:00:00 7,4 -0,1 28 15 46 25 N 1016,4 24 0,0
24.04.2017 23:00:00 8,2 5,1 16 9 - - N 1016,1 40 0,0
24.04.2017 22:00:00 8,7 5,3 18 10 - - N 1016,2 30 0,0
24.04.2017 21:00:00 9,8 6,6 18 10 - - NNW 1015,8 45 0,0
24.04.2017 20:00:00 11,0 6,0 21 11 - - NNW 1015,4 24 0,0
24.04.2017 19:00:00 11,9 4,7 26 14 - - NW 1015,5 28 0,0
24.04.2017 18:00:00 12,7 5,9 21 11 - - NW 1015,7 20 0,0
24.04.2017 17:00:00 13,1 4,0 24 13 - - NW 1016,0 35 0,0
24.04.2017 16:00:00 12,9 5,3 18 10 - - WNW 1016,6 30 0,0
24.04.2017 15:00:00 13,8 6,3 24 13 - - NW 1017,0 25 0,0
24.04.2017 14:00:00 14,2 6,4 18 10 - - NW 1017,5 30 0,0
24.04.2017 13:00:00 12,6 9,1 16 9 - - SW 1018,1 12 0,0
24.04.2017 12:00:00 15,2 10,2 13 7 - - SW 1018,7 20 0,0
24.04.2017 11:00:00 14,2 8,4 8 4 - - WSW 1019,4 40 0,0
24.04.2017 10:00:00 11,4 7,3 8 4 - - W 1019,7 21 0,0
24.04.2017 09:00:00 9,0 8,0 8 4 - - WSW 1020,1 11 0,0
24.04.2017 08:00:00 6,6 6,4 2 1 - - W 1020,5 23 0,0
24.04.2017 07:00:00 4,4 4,3 2 1 - - N 1020,5 18 0,0
24.04.2017 06:00:00 4,5 4,0 4 2 - - WNW 1020,7 23 0,0
24.04.2017 05:00:00 4,9 4,6 5 3 - - WNW 1021,2 19 0,0
24.04.2017 04:00:00 4,7 4,3 4 2 - - WNW 1021,7 15 0,0
24.04.2017 03:00:00 5,6 5,0 0 0 - - N 1022,2 10 0,0
24.04.2017 02:00:00 6,4 6,0 4 2 - - E 1022,8 6 0,0
24.04.2017 01:00:00 7,3 7,0 5 3 - - ENE 1023,2 6 0,0
24.04.2017 00:00:00 7,7 7,4 5 3 - - NE 1023,7 6 0,0
23.04.2017 23:00:00 8,1 7,7 2 1 - - WNW 1024,0 7 0,0
23.04.2017 22:00:00 8,9 7,7 8 4 - - SW 1024,4 7 0,0
23.04.2017 21:00:00 10,5 8,9 5 3 - - SW 1024,4 12 0,0
23.04.2017 20:00:00 11,3 9,5 9 5 - - SSW 1024,4 12 0,0
23.04.2017 19:00:00 11,9 9,1 8 4 - - SW 1024,8 13 0,0
23.04.2017 18:00:00 11,7 9,8 9 5 - - SSW 1025,1 9 0,0
23.04.2017 17:00:00 12,3 9,7 13 7 - - SSW 1025,4 14 0,0
23.04.2017 16:00:00 13,6 9,9 15 8 - - SSW 1025,9 15 0,0
23.04.2017 15:00:00 15,0 10,5 16 9 - - SSW 1026,4 12 0,0
23.04.2017 14:00:00 15,3 10,4 21 11 - - S 1026,6 17 0,0
23.04.2017 13:00:00 15,3 7,8 22 12 - - S 1027,0 26 0,0
23.04.2017 12:00:00 14,3 5,9 16 9 - - SE 1027,2 15 0,0
23.04.2017 11:00:00 15,6 5,4 11 6 - - SE 1027,4 40 0,0
23.04.2017 10:00:00 13,8 3,9 15 8 - - E 1027,5 30 0,0
23.04.2017 09:00:00 12,1 3,1 16 9 - - E 1027,6 24 0,0
23.04.2017 08:00:00 10,0 3,4 11 6 - - E 1027,7 30 0,0
23.04.2017 07:00:00 7,6 3,3 9 5 - - E 1027,4 45 0,0
23.04.2017 06:00:00 7,2 4,2 11 6 - - ENE 1027,4 22 0,0

tt = temperature
td = dewpoint
ff = wind speed
fx = gusts
dd = wind direction
ppp = reduced air pressure
vv = visibility
rr = precipitation

Next stations